Home > Weather > Owensboro > Past weeks

Flag for USA Past Weather in Owensboro, Kentucky, USA — Yesterday and Last 2 Weeks

Now
76 °F

Rain. Fog.


Feels Like: 75 °F
Forecast: 74 / 81 °F
Wind: 6 mph from Southwest

Location: Owensboro / Daviess

Current Time: Jul 27, 2016 at 9:57:40 PM

Latest Report: Jul 27, 2016 at 8:56 PM


Visibility: 6 mi

Pressure: 29.92 "Hg

Humidity: 100%

Dew Point: 76 °F

Location of OwensboroLocation

Past Weather in Owensboro — Graph

°F

Owensboro Temperature Yesterday

Maximum temperature yesterday: 92 °F (at 3:56 PM)
Minimum temperature yesterday: 74 °F (at 2:56 AM)
Average temperature yesterday: 81 °F

High & Low Weather Summary for the Past Weeks

 TemperatureHumidityPressure
High94 °F (Jul 19, 2:56 PM)100% (Jul 12, 10:56 PM)30.25 "Hg (Jul 12, 10:56 PM)
Low68 °F (Jul 15, 3:56 AM)50% (Jul 19, 5:56 PM)29.88 "Hg (Jul 27, 5:56 PM)
Average81 °F82%30.05 "Hg
* Reported Jul 12 7:56 PM — Jul 27 7:56 PM, Owensboro, Weather by CustomWeather, © 2016

Note: Actual official high and low records may vary slightly from our data, if they occured in-between our weather recording intervals... More about our weather records

Advertising

Owensboro Weather History for the Previous 24 Hours

Scroll right to see more
 ConditionsComfort  
Time TempWeatherWind HumidityBarometerVisibility
7:56 PM
Wed, Jul 27
77 °FThunderstorms. Fog.14 mph96%29.97 "Hg5 mi
6:56 PM80 °FThunderstorms. Broken clouds.5 mph88%29.92 "Hg7 mi
5:56 PM87 °FPartly sunny.9 mph72%29.88 "Hg10 mi
4:56 PM92 °FScattered clouds.6 mph57%29.89 "Hg10 mi
3:56 PM93 °FScattered clouds.6 mph58%29.90 "Hg10 mi
2:56 PM91 °FSunny.6 mph66%29.93 "Hg10 mi
1:56 PM91 °FSunny.5 mph62%29.95 "Hg10 mi
12:56 PM90 °FSunny.6 mph68%29.97 "Hg10 mi
11:56 AM90 °FSunny.3 mph63%29.99 "Hg10 mi
10:56 AM87 °FSunny.No wind63%29.99 "Hg10 mi
9:56 AM79 °FScattered clouds.7 mph84%29.99 "Hg7 mi
8:56 AM79 °FFog.10 mph100%30.01 "Hg3 mi
7:56 AM81 °FFog.No wind90%29.98 "Hg4 mi
7:03 AM75 °FFog.No wind100%30.01 "Hg2 mi
6:56 AM76 °FFog.No wind100%30.00 "Hg1 mi
5:56 AM75 °FFog.No wind100%29.99 "Hg1 mi
4:56 AM76 °FClear.No wind100%29.96 "Hg7 mi
4:00 AM75 °FFog.No wind100%29.97 "Hg1 mi
3:56 AM76 °FFog.No wind100%29.95 "Hg2 mi
3:03 AM75 °FFog.No wind100%29.97 "Hg2 mi
2:56 AM76 °FFog.No wind100%29.96 "Hg5 mi
1:56 AM76 °FFog.No wind100%29.96 "Hg4 mi
12:56 AM78 °FClear.No wind100%29.96 "Hg7 mi
11:56 PM
Tue, Jul 26
78 °FClear.No wind100%29.97 "Hg8 mi
10:56 PM79 °FClear.No wind96%29.98 "Hg10 mi
9:56 PM80 °FClear.3 mph94%29.99 "Hg10 mi
Weather by CustomWeather, © 2016

See weather overviewHow to use our weather pages